EW6551 Weather Reports


Display with metric or nautical units.
time (UTC)temp
F
wind
direction
speed
MPH
gust
MPH
rain 1hr
in
rain 24hr
in
rain mn
in
humidity
%
barometer
mb
20260503054317 54 0.0 3.0 0.00 0.04 0.04 74 1016.3
20260503053318 54 285 2.0 4.0 0.00 0.04 0.04 75 1016.3
20260503052337 54 285 2.0 3.0 0.00 0.04 0.04 74 1016.3
20260503051317 54 285 0.0 2.0 0.00 0.04 0.04 72 1016.3
20260503050323 55 285 1.0 4.0 0.00 0.04 0.04 71 1016.6
20260503045317 55 285 2.0 5.0 0.00 0.04 0.04 68 1016.6
20260503044317 55 285 1.0 5.0 0.00 0.04 0.04 68 1016.9
20260503043318 55 285 2.0 2.0 0.00 0.04 0.04 68 1016.5
20260503042317 55 285 0.0 4.0 0.00 0.04 0.04 67 1016.3
20260503041318 55 285 2.0 3.0 0.00 0.04 0.04 68 1016.4
20260503040320 56 285 1.0 4.0 0.00 0.04 0.04 67 1016.3
20260503035338 56 285 2.0 3.0 0.00 0.04 0.04 65 1016.3
20260503034317 56 285 1.0 3.0 0.00 0.04 0.04 62 1016.4
20260503033317 56 0.0 4.0 0.00 0.04 0.04 62 1016.5
20260503032317 57 285 3.0 6.0 0.00 0.04 0.04 61 1016.2
20260503031318 56 285 3.0 4.0 0.00 0.04 0.04 61 1016.0
20260503030317 57 285 2.0 8.0 0.00 0.04 0.04 60 1015.6
20260503025318 57 294 2.0 9.0 0.00 0.04 0.04 59 1015.5
20260503024317 57 283 2.0 9.0 0.00 0.04 0.04 60 1015.3
20260503023318 57 254 4.0 15.0 0.00 0.04 0.04 61 1015.2
20260503022318 57 239 9.0 16.0 0.00 0.04 0.04 61 1015.1
20260503021318 57 289 5.0 12.0 0.00 0.04 0.04 63 1015.2
20260503020318 57 249 9.0 13.0 0.00 0.04 0.04 62 1015.2
20260503015318 57 286 4.0 15.0 0.01 0.04 0.04 65 1015.1
20260503014318 57 267 5.0 11.0 0.04 0.04 0.04 65 1015.0
20260503013318 57 291 6.0 9.0 0.04 0.04 0.04 67 1015.2
20260503012318 57 292 5.0 9.0 0.04 0.04 0.04 67 1015.5
20260503011318 56 310 5.0 9.0 0.04 0.04 0.04 68 1015.7
20260503010318 58 314 2.0 9.0 0.04 0.04 0.04 64 1015.7
20260503005316 62 92 2.0 13.0 0.03 0.03 0.03 52 1015.8
20260503004316 64 347 4.0 9.0 0.00 0.00 0.00 43 1015.6
20260503003316 64 352 6.0 9.0 0.00 0.00 0.00 41 1015.1
20260503002316 64 265 2.0 6.0 0.00 0.00 0.00 41 1014.4
20260503001336 64 223 2.0 5.0 0.00 0.00 0.00 40 1014.1
20260503000337 66 224 4.0 8.0 0.00 0.00 0.00 40 1014.5
20260502235317 66 321 1.0 8.0 0.00 0.00 0.00 34 1014.3
20260502234337 67 285 2.0 8.0 0.00 0.00 0.00 34 1013.9
20260502233338 67 286 5.0 10.0 0.00 0.00 0.00 34 1013.7
20260502232337 68 276 3.0 7.0 0.00 0.00 0.00 33 1013.6
20260502231317 69 239 4.0 10.0 0.00 0.00 0.00 30 1013.8
20260502230316 69 241 5.0 12.0 0.00 0.00 0.00 30 1013.8
20260502225315 70 219 5.0 13.0 0.00 0.00 0.00 28 1013.8
20260502224315 71 141 3.0 13.0 0.00 0.00 0.00 24 1014.0
20260502223316 71 118 8.0 11.0 0.00 0.00 0.00 27 1014.2
20260502222318 71 144 3.0 7.0 0.00 0.00 0.00 26 1014.0
20260502221316 70 130 4.0 9.0 0.00 0.00 0.00 27 1014.2
20260502220315 70 123 5.0 11.0 0.00 0.00 0.00 26 1014.2
20260502215316 69 78 6.0 13.0 0.00 0.00 0.00 26 1014.4
20260502214318 70 69 9.0 22.0 0.00 0.00 0.00 25 1014.6
20260502213318 70 73 4.0 13.0 0.00 0.00 0.00 26 1014.7
20260502212318 70 102 6.0 14.0 0.00 0.00 0.00 26 1014.9
20260502211318 70 91 5.0 13.0 0.00 0.00 0.00 26 1015.0
20260502210319 70 103 5.0 12.0 0.00 0.00 0.00 26 1015.0
20260502205318 70 54 6.0 9.0 0.00 0.00 0.00 26 1015.0
20260502204318 70 123 4.0 11.0 0.00 0.00 0.00 26 1015.1
20260502203318 70 122 4.0 11.0 0.00 0.00 0.00 26 1015.2
20260502202318 70 109 6.0 12.0 0.00 0.00 0.00 26 1015.1
20260502201318 71 97 8.0 13.0 0.00 0.00 0.00 26 1015.2
20260502200318 71 137 4.0 15.0 0.00 0.00 0.00 25 1015.3
20260502195418 71 93 6.0 19.0 0.00 0.00 0.00 25 1015.3
20260502194318 71 78 5.0 14.0 0.00 0.00 0.00 25 1015.3
20260502193318 71 110 5.0 15.0 0.00 0.00 0.00 25 1015.3
20260502192318 72 40 6.0 11.0 0.00 0.00 0.00 25 1015.4
20260502191318 72 128 4.0 10.0 0.00 0.00 0.00 25 1015.4
20260502190318 72 144 3.0 15.0 0.00 0.00 0.00 25 1015.6
20260502185318 71 80 1.0 9.0 0.00 0.00 0.00 25 1015.7
20260502184338 71 92 3.0 9.0 0.00 0.00 0.00 26 1015.7
20260502183315 70 139 6.0 9.0 0.00 0.00 0.00 27 1015.9
20260502182315 69 70 4.0 9.0 0.00 0.00 0.00 27 1016.1
20260502181316 69 40 1.0 9.0 0.00 0.00 0.00 27 1016.2
20260502180316 69 137 2.0 5.0 0.00 0.00 0.00 28 1016.2
20260502170315 66 134 2.0 5.0 0.00 0.00 0.00 32 1016.4
20260502164316 64 134 1.0 6.0 0.00 0.00 0.00 32 1016.4
20260502163315 64 270 1.0 4.0 0.00 0.00 0.00 33 1016.5
20260502162316 63 270 2.0 4.0 0.00 0.00 0.00 35 1016.5
20260502161336 62 270 1.0 3.0 0.00 0.00 0.00 34 1016.5
20260502160336 62 270 1.0 4.0 0.00 0.00 0.00 34 1016.5
20260502152336 60 223 1.0 3.0 0.00 0.00 0.00 43 1016.5
20260502151315 57 0.0 0.0 0.00 0.00 0.00 45 1016.5
20260502150316 55 0.0 0.0 0.00 0.00 0.00 49 1016.5
20260502130316 45 0.0 0.0 0.00 0.00 0.00 52 1015.6
20260502123316 47 0.0 0.0 0.00 0.00 0.00 51 1015.6
20260502122336 47 0.0 0.0 0.00 0.00 0.00 47 1015.6
20260502121315 48 0.0 0.0 0.00 0.00 0.00 49 1015.5
20260502120316 48 0.0 0.0 0.00 0.00 0.00 46 1015.5
20260502115336 48 0.0 0.0 0.00 0.00 0.00 46 1015.5
20260502114316 49 0.0 0.0 0.00 0.00 0.00 44 1015.5
20260502113356 48 0.0 0.0 0.00 0.00 0.00 45 1015.6
20260502112315 48 0.0 0.0 0.00 0.00 0.00 47 1015.6
20260502111316 48 0.0 0.0 0.00 0.00 0.00 50 1015.5
20260502110315 49 0.0 0.0 0.00 0.00 0.00 49 1015.6
20260502105316 49 0.0 0.0 0.00 0.00 0.00 48 1015.5
20260502104316 49 0.0 0.0 0.00 0.00 0.00 45 1015.5
20260502103315 50 0.0 0.0 0.00 0.00 0.00 47 1015.5
20260502102315 50 0.0 0.0 0.00 0.00 0.00 44 1015.5
20260502101316 50 0.0 0.0 0.00 0.00 0.00 43 1015.4
20260502100335 49 0.0 0.0 0.00 0.00 0.00 44 1015.3
20260502091338 51 0.0 0.0 0.00 0.00 0.00 37 1015.8
20260502090318 52 0.0 4.0 0.00 0.00 0.00 36 1015.8
20260502071318 55 0.0 1.0 0.00 0.00 0.00 31 1016.6
20260502070318 55 223 0.0 2.0 0.00 0.00 0.00 30 1016.6
20260502065318 55 223 2.0 4.0 0.00 0.00 0.00 30 1016.5
20260502064318 55 223 3.0 4.0 0.00 0.00 0.00 26 1016.5
20260502063318 55 223 0.0 1.0 0.00 0.00 0.00 30 1016.5
20260502062318 56 0.0 2.0 0.00 0.00 0.00 31 1016.5
20260502061319 56 0.0 2.0 0.00 0.00 0.00 30 1016.5
20260502060315 56 0.0 1.0 0.00 0.00 0.00 28 1016.5